TITAN 3C TRANSTAGE R/B

基本信息
目录编号:
9855
目录名称:
TITAN 3C TRANSTAGE R/B
国际标识:
1977-007C
轨道中心:
EARTH
物体状态:
在轨
发射日期:
1977-02-06 UTC
国别:
美国 (US)
轨道信息
数据来源: 国际轨道数据
星历时间: 2026-07-13T14:00:54+0800
半长轴: 42145.648km
偏心率: 0.0015956
轨道倾角: 3.327°
近地点辐角: 48.026°
升交点赤经: 267.422°
平近点角: 312.529°
近地点: 35700.263km
远地点: 35834.759km
周期: 1435.122分钟
每日圈数: 1.003399
详细信息
发射场:
AFETR
轨道高度:
MEO
数据来源:
AOE Integration Group
参考系:
TEME
时间系统:
UTC
历元类型:
SGP4
2D轨道图
3D轨道图
轨道高度分析图
轨道倾角分析图
轨道综合分析图
查看轨道综合分析图